Simultaneous Nadir Overpasses (SNOs) Predictions

Prediction of SNOs between FY3D and NOAA-19 Satellite Orbit:

Table of predicted SNOs for the next 14.0 days since TLE Epoch: 7/6/2019
Index Date (FY3D) Time (FY3D) Lat,Lon (FY3D) SZA (FY3D ) Date (NOAA-19) Time (NOAA-19) Lat,Lon (NOAA-19) SZA (NOAA-19 ) Distance(km) Time Diff (sec)
1 07/09/2019 06:03:56 79.85, 52.90 59.68 07/09/2019 06:02:53 79.86, 48.30 60.27 90.05 63
2 07/09/2019 06:54:48 -80.06,-141.89 119.92 07/09/2019 06:53:49 -80.07,-141.75 119.90 2.95 59
3 07/09/2019 07:45:32 80.06, 25.50 60.07 07/09/2019 07:44:45 80.08, 25.54 60.11 2.21 47
4 07/09/2019 08:36:17 -80.06,-167.21 119.92 07/09/2019 08:35:50 -80.07,-167.31 119.89 2.26 27
5 07/09/2019 09:27:02 80.08, -0.13 60.13 07/09/2019 09:26:46 80.07, -0.02 60.12 2.26 16
6 07/09/2019 10:17:47 -80.08, 167.17 119.87 07/09/2019 10:17:51 -80.07, 167.13 119.88 2.01 4
7 07/09/2019 11:08:31 80.08, -25.45 60.13 07/09/2019 11:08:47 80.07, -25.58 60.13 2.67 16
8 07/09/2019 11:59:16 -80.08, 141.84 119.87 07/09/2019 11:59:51 -80.08, 141.89 119.89 1.09 35
9 07/09/2019 12:50:00 80.07, -50.77 60.13 07/09/2019 12:50:47 80.09, -50.82 60.12 1.79 47
10 07/09/2019 13:40:46 -80.10, 116.21 119.81 07/09/2019 13:41:52 -80.08, 116.33 119.87 3.28 66




NCC Satellite Simultaneous Nadir Overpasses (SNOs) Prediction Service
